Regional Weather Roundup
Issued by NWS

Home | Current Version | Previous Version | Text Only | Print | Product List | Glossary On
Versions: 1 2 3 4 5 6 7 8 9 10 11 12 13 14 15 16 17 18 19 20 21 22 23 24 25 26 27 28 29 30 31 32 33 34 35 36 37 38 39 40 41 42 43 44 45 46 47 48 49 50
000
ASUS43 KMKX 282021
RWRWI

WISCONSIN REGIONAL WEATHER ROUNDUP
NATIONAL WEATHER SERVICE MILWAUKEE/SULLIVAN WI
300 PM CDT WED JUN 28 2017

NOTE: "FAIR" INDICATES FEW OR NO CLOUDS BELOW 12,000 FEET WITH NO
SIGNIFICANT WEATHER AND/OR OBSTRUCTIONS TO VISIBILITY.

WIZ001-002-006>008-014>016-023>028-282100-
NORTHWEST WISCONSIN

CITY           SKY/WX    TMP DP  RH WIND       PRES   REMARKS
SUPERIOR ARPT  NOT AVBL
ASHLAND        LGT RAIN  64  62  93 S5        29.61F
HAYWARD        CLOUDY    64  62  93 S10G18    29.59F
SIREN          CLOUDY    68  65  90 S9        29.55F
CUMBERLAND     CLOUDY    68  64  88 S15       29.58F
RICE LAKE      CLOUDY    67  65  93 S10       29.61F
CHETEK         CLOUDY    67  66  94 S8        29.61F
LADYSMITH      RAIN      66  65  95 S8        29.65S
EAU CLAIRE     CLOUDY    71  65  81 S17G26    29.61F
MENOMONIE      CLOUDY    74  67  76 SE16G23   29.59F
NEW RICHMOND   MOSUNNY   74  66  75 S15G23    29.54F
OSCEOLA        CLOUDY    76  68  75 SE15      29.56F
$$

WIZ003>005-009-010-017-018-282100-
NORTH CENTRAL WISCONSIN

CITY           SKY/WX    TMP DP  RH WIND       PRES   REMARKS
MANITOWISH WTR DRIZZLE   61  61 100 SE8       29.68F
ARBOR VITAE    DRIZZLE   62  60  94 S8        29.68F
WOODRUFF       DRIZZLE   62  60  94 S8        29.68F
RHINELANDER    LGT RAIN  62  61  96 SE9       29.71F
EAGLE RIVER    LGT RAIN  61  60  98 S8        29.70F
LAND O LAKES   RAIN      62  60  96 S7        29.72F
PHILLIPS       RAIN      62  62  99 S9        29.65F
TOMAHAWK       NOT AVBL
MEDFORD        CLOUDY    64  63  94 S12       29.67F
MERRILL        CLOUDY    63  63 100 S7        29.71S
$$

WIZ029-030-035-036-043>047-282100-
CENTRAL WISCONSIN

CITY           SKY/WX    TMP DP  RH WIND       PRES   REMARKS
WAUSAU         CLOUDY    63  62  97 S12       29.70F
MOSINEE        LGT RAIN  63  63 100 S10       29.72F
MARSHFIELD     LGT RAIN  67  63  87 S16G24    29.69F
STEVENS POINT  CLOUDY    65  65 100 S12       29.71F
WAUPACA        LGT RAIN  67  66  96 S9        29.74F
WAUTOMA        LGT RAIN  65  64  97 S13G23    29.76S
WISC RAPIDS    LGT RAIN  67  65  93 S10       29.73F
CAMP DOUGLAS   LGT RAIN  66  66 100 SE10      29.71F
$$

WIZ011>013-019>022-031-037>040-048>050-282100-
NORTHEAST WISCONSIN

CITY           SKY/WX    TMP DP  RH WIND       PRES   REMARKS
ANTIGO         DRIZZLE   60  60 100 S10       29.74F
SHAWANO        LGT RAIN  64  63  94 S7        29.74F
OCONTO         CLOUDY    63  61  96 S8        29.77F
STURGEON BAY   LGT RAIN  59  58  96 S17       29.79F FOG
GREEN BAY      LGT RAIN  65  65 100 S12       29.76F
MANITOWOC      LGT RAIN  59  57  93 S13       29.80F FOG
APPLETON       LGT RAIN  64  64 100 S12       29.75F
CLINTONVILLE   CLOUDY    63  61  94 S8        29.73F
OSHKOSH        LGT RAIN  65  62  90 S14       29.78R FOG
$$

WIZ032>034-041-042-053>061-282100-
SOUTHWEST WISCONSIN

CITY           SKY/WX    TMP DP  RH WIND       PRES   REMARKS
LA CROSSE      LGT RAIN  73  68  84 S16G25    29.65F
SPARTA         CLOUDY    67  65  91 S10       29.69F
VIROQUA        CLOUDY    67  67 100 S10       29.73F
BOSCOBEL       CLOUDY    74  66  76 SW9G21    29.73S
PRAIRIE DU CHI CLOUDY    74  65  75 SE5       29.71S
PLATTEVILLE    CLOUDY    72  70  93 S16       29.77F
$$

WIZ056-057-062-063-064-067-068-282100-
SOUTH CENTRAL WISCONSIN

CITY           SKY/WX    TMP DP  RH WIND       PRES   REMARKS
REEDSBURG      RAIN      66  66 100 S10G16    29.74F
BARABOO/DELLS  CLOUDY    65  63  93 S10       29.76F
LONE ROCK      CLOUDY    71  66  84 S7G18     29.74S
MINERAL POINT  CLOUDY    72  70  94 S13G21    29.77S
MADISON        CLOUDY    71  66  84 S17G26    29.75F THUNDER
MIDDLETON      CLOUDY    72  67  83 S13G21    29.76F
WATERTOWN      CLOUDY    69  68  98 S13       29.79S
MONROE         CLOUDY    70  64  83 S16G23    29.78F
JANESVILLE     CLOUDY    73  64  73 S15G22    29.79F
$$

WIZ051-052-058>065-066-070>072-282100-
SOUTHEAST WISCONSIN

CITY           SKY/WX    TMP DP  RH WIND       PRES   REMARKS
MILWAUKEE      CLOUDY    69  64  84 S9        29.82F
WAUKESHA       CLOUDY    64  61  88 S8        29.83F
MILWAUKEE/TIMM LGT RAIN  66  61  82 S10       29.82F
RACINE         CLOUDY    70  61  73 S8        29.85F
KENOSHA        MOSUNNY   71  61  70 S17G23    29.84F
FOND DU LAC    LGT RAIN  66  62  87 SW7G17    29.79S
SHEBOYGAN      LGT RAIN  62  62 100 S12       29.80F FOG
WEST BEND      LGT RAIN  63  63 100 S8        29.80F
JUNEAU         CLOUDY    65  63  92 S12       29.81R
$$

LSZ147-162-282100-
LAKE SUPERIOR

STATION/POSITION TIME  TEMP    WIND        PRES    WAVE
                       AIR SEA DIR/SP/G            HT/PER
                 (UTC) (F)     (DEG/KT/KT) (MB)    (FT/S)
W MID LAKE BUOY  1950   45 39  110/  8/ 10 1004.6F   1
DEVILS ISLAND    2000   53      60/ 11/ 12 1003.3F
SAXON HARBOR     1930   66     180/  3/  9 1002.4F
$$

LMZ867-665-643>646-282100-
LAKE MICHIGAN

STATION/POSITION TIME  TEMP    WIND        PRES    WAVE
                       AIR SEA DIR/SP/G            HT/PER
                 (UTC) (F)     (DEG/KT/KT) (MB)    (FT/S)
CHAMBERS ISLAND  1940   63     150/  6/ 13 1008.5F
S GREEN BAY BUOY 2000   63     170/ 16/ 17 1008.1
N MID LAKE BUOY  1950   57 53  180/ 21/ 25 1010.3F   6/ 6
NORTHPORT PIER   1940   61     170/ 10/ 19 1009.5F
KEWAUNEE LAKESHO 1954   54     180/ 15/ 17 1009.0F
SHEBOYGAN LAKESH 2000   55     190/ 16/ 17 1009.7F
PORT WASHINGTON  2000   57     210/  3/ 14 1010.2
ATWATER BUOY     1909   60 52  150/ 12/ 14 1010.3F
MILWAUKEE LAKESH 2000   62     150/  9/ 11   N/A
S MID LAKE BUOY  1950   65 60  170/ 17/ 19 1010.9F   4/ 5
KENOSHA   LAKESH 2000   62     180/ 11/ 16 1010.5
$$

TC  - TEMPERATURE IN CELSIUS
VSB - VISIBILITY IN STATUTE MILES
WCI - WIND CHILL INDEX
HX  - HEAT INDEX




USA.gov is the U.S. government's official web portal to all federal, state and local government web resources and services.